Regional Weather Roundup
Issued by NWS Binghamton, NY

Home | Current Version | Previous Version | Text Only | Print | Product List | Glossary On
Versions: 1 2 3 4 5 6 7 8 9 10 11 12 13 14 15 16 17 18 19 20 21 22 23 24 25 26 27
000
ASUS41 KBGM 270310
RWRBGM

REGIONAL WEATHER ROUNDUP
NATIONAL WEATHER SERVICE BINGHAMTON NY
1100 PM EDT WED JUL 26 2017

Note: "fair" indicates few or no clouds below 12,000 feet with no
significant weather and/or obstructions to visibility.

* = Station(s) that does not report precipitation, such as rain,
snow, etc, also no thunder or fog.

NYZ009-015>018-022>025-036-037-044>046-055>057-062-270400
...Central New York...

CITY           SKY/WX    TMP DP  RH WIND       PRES   REMARKS
Binghamton     CLOUDY    65  58  78 S6        30.11F
Cortland       FAIR      63  61  94 CALM      30.10S
Dansville      MOCLDY    69  64  84 S8        30.05F
Elmira         PTCLDY    64  62  93 CALM      30.08F
Seneca Falls   PTCLDY    68  63  83 S8        30.04F
Ithaca         CLOUDY    65  60  84 S3        30.10S
Hamilton       CLEAR     63  59  88 CALM      30.09F
Hornell        CLEAR     64  63  94 CALM      30.12F
Monticello     NOT AVBL
Norwich        CLEAR     63  61  94 SW3       30.11F
Oneonta        CLEAR     63 N/A N/A SW3       30.13S
Penn Yan       CLOUDY    70  61  73 S8        30.07F
Rome           CLOUDY    66  63  90 E6        30.05F
Sidney         PTCLDY    64  64 100 CALM      30.10F
Syracuse       CLOUDY    66  62  87 CALM      30.03F
$$

PAZ038>040-043-044-047-048-072-270400
...Northeast Pennsylvania...

CITY           SKY/WX    TMP DP  RH WIND       PRES   REMARKS
Hazleton         N/A     64  61  88 SE5       30.17F
Scranton       MOCLDY    69  62  78 CALM      30.12F
$$
&&
KEY
WCI = Wind Chill Index
VSB = Visibility
HX  = Heat Index
$$




USA.gov is the U.S. government's official web portal to all federal, state and local government web resources and services.